| time (UTC) | temp C | wind direction | speed KPH | gust KPH | rain 1hr cm | rain 24hr cm | rain mn cm | humidity % | barometer mb |
| 20260507151513 | 13 | 68 | 0.0 | 3.2 | 0.00 | 0.00 | 0.00 | 71 | 1013.3 |
| 20260507150012 | 13 | 120 | 0.0 | 1.6 | 0.00 | 0.00 | 0.00 | 72 | 1013.0 |
| 20260507144511 | 13 | 136 | 0.0 | 3.2 | 0.00 | 0.00 | 0.00 | 72 | 1013.2 |
| 20260507143019 | 13 | 113 | 0.0 | 3.2 | 0.00 | 0.00 | 0.00 | 75 | 1013.5 |
| 20260507141516 | 13 | 131 | 0.0 | 6.4 | 0.00 | 0.00 | 0.00 | 74 | 1013.6 |
| 20260507140013 | 13 | 122 | 0.0 | 4.8 | 0.00 | 0.00 | 0.00 | 76 | 1013.6 |
| 20260507134507 | 13 | 148 | 0.0 | 4.8 | 0.00 | 0.00 | 0.00 | 77 | 1013.7 |
| 20260507133007 | 13 | 141 | 1.6 | 8.0 | 0.00 | 0.00 | 0.00 | 76 | 1013.6 |
| 20260507131515 | 13 | 66 | 0.0 | 3.2 | 0.00 | 0.00 | 0.00 | 76 | 1013.4 |
| 20260507130005 | 13 | 309 | 0.0 | 6.4 | 0.00 | 0.00 | 0.00 | 79 | 1013.4 |
| 20260507124509 | 13 | 78 | 0.0 | 4.8 | 0.00 | 0.00 | 0.00 | 79 | 1013.6 |
| 20260507123002 | 13 | 115 | 0.0 | 8.0 | 0.00 | 0.00 | 0.00 | 79 | 1013.0 |
| 20260507121503 | 13 | 78 | 0.0 | 4.8 | 0.00 | 0.00 | 0.00 | 81 | 1013.1 |
| 20260507120100 | 13 | 82 | 0.0 | 4.8 | 0.00 | 0.00 | 0.00 | 84 | 1012.8 |
| 20260507114609 | 12 | 139 | 0.0 | 4.8 | 0.00 | 0.00 | 0.00 | 85 | 1012.8 |
| 20260507113126 | -17 | 0.0 | 0.0 | 0.00 | 0.00 | 0.00 | 1012.9 | ||
| 20260507111556 | -17 | 0.0 | 0.0 | 0.00 | 0.00 | 0.00 | 1012.5 | ||
| 20260507110049 | -17 | 0.0 | 0.0 | 0.00 | 0.00 | 0.00 | 1012.8 | ||
| 20260507104544 | -17 | 0.0 | 0.0 | 0.00 | 0.00 | 0.00 | 1012.6 | ||
| 20260507103048 | -17 | 129 | 0.0 | 1.6 | 0.00 | 0.00 | 0.00 | 1012.5 | |
| 20260507101537 | 12 | 143 | 0.0 | 4.8 | 0.00 | 0.00 | 0.00 | 91 | 1012.0 |
| 20260507100036 | 12 | 111 | 0.0 | 1.6 | 0.00 | 0.00 | 0.00 | 92 | 1012.0 |
| 20260507094535 | 12 | 111 | 0.0 | 1.6 | 0.00 | 0.00 | 0.00 | 93 | 1012.5 |
| 20260507093035 | 12 | 111 | 0.0 | 0.0 | 0.00 | 0.00 | 0.00 | 94 | 1012.1 |
| 20260507091537 | 12 | 111 | 0.0 | 0.0 | 0.00 | 0.00 | 0.00 | 94 | 1012.4 |
| 20260507090033 | 12 | 111 | 0.0 | 3.2 | 0.00 | 0.00 | 0.00 | 94 | 1012.1 |
| 20260507084541 | 12 | 109 | 0.0 | 1.6 | 0.00 | 0.00 | 0.00 | 93 | 1011.7 |
| 20260507083031 | 12 | 101 | 0.0 | 1.6 | 0.00 | 0.00 | 0.00 | 93 | 1012.0 |
| 20260507081536 | 12 | 112 | 0.0 | 1.6 | 0.00 | 0.00 | 0.00 | 92 | 1012.1 |
| 20260507080029 | 12 | 113 | 0.0 | 1.6 | 0.00 | 0.00 | 0.00 | 92 | 1012.2 |
| 20260507074528 | 12 | 112 | 0.0 | 1.6 | 0.00 | 0.00 | 0.00 | 91 | 1011.5 |
| 20260507073026 | 12 | 108 | 0.0 | 4.8 | 0.00 | 0.00 | 0.00 | 92 | 1011.5 |
| 20260507071524 | 13 | 120 | 0.0 | 3.2 | 0.00 | 0.00 | 0.00 | 92 | 1011.2 |
| 20260507070023 | 13 | 110 | 0.0 | 6.4 | 0.00 | 0.00 | 0.00 | 92 | 1011.2 |
| 20260507064521 | 13 | 95 | 0.0 | 11.3 | 0.00 | 0.00 | 0.00 | 93 | 1011.4 |
| 20260507063023 | 13 | 121 | 0.0 | 8.0 | 0.00 | 0.00 | 0.00 | 94 | 1011.6 |
| 20260507061515 | 14 | 133 | 1.6 | 4.8 | 0.00 | 0.00 | 0.00 | 95 | 1011.8 |
| 20260507060013 | 14 | 143 | 3.2 | 6.4 | 0.00 | 0.00 | 0.00 | 95 | 1010.6 |
| 20260507054510 | 15 | 147 | 1.6 | 4.8 | 0.00 | 0.00 | 0.00 | 95 | 1009.7 |
| 20260507053009 | 15 | 351 | 0.0 | 4.8 | 0.00 | 0.00 | 0.00 | 94 | 1010.0 |
| 20260507051505 | 15 | 131 | 0.0 | 3.2 | 0.00 | 0.00 | 0.00 | 94 | 1010.9 |
| 20260507050002 | 16 | 132 | 0.0 | 8.0 | 0.00 | 0.00 | 0.00 | 93 | 1011.3 |
| 20260507044610 | 17 | 127 | 0.0 | 3.2 | 0.00 | 0.00 | 0.00 | 95 | 1010.8 |
| 20260507043104 | 17 | 122 | 0.0 | 1.6 | 0.00 | 0.00 | 0.00 | 96 | 1010.7 |
| 20260507041557 | 17 | 122 | 0.0 | 0.0 | 0.00 | 0.00 | 0.00 | 95 | 1010.4 |
| 20260507040051 | 17 | 122 | 0.0 | 0.0 | 0.00 | 0.00 | 0.00 | 95 | 1010.5 |
| 20260507034553 | 17 | 123 | 0.0 | 0.0 | 0.00 | 0.00 | 0.00 | 94 | 1010.4 |
| 20260507033050 | 17 | 123 | 0.0 | 0.0 | 0.00 | 0.00 | 0.00 | 93 | 1010.1 |
| 20260507031550 | 17 | 122 | 0.0 | 0.0 | 0.00 | 0.00 | 0.00 | 93 | 1010.1 |
| 20260507030049 | 17 | 122 | 0.0 | 0.0 | 0.00 | 0.00 | 0.00 | 93 | 1010.5 |
| 20260507024553 | 17 | 122 | 0.0 | 0.0 | 0.00 | 0.00 | 0.00 | 92 | 1010.1 |
| 20260507023103 | 17 | 122 | 0.0 | 1.6 | 0.00 | 0.00 | 0.00 | 92 | 1009.7 |
| 20260507021550 | 17 | 122 | 0.0 | 0.0 | 0.00 | 0.00 | 0.00 | 91 | 1009.4 |
| 20260507020056 | 18 | 122 | 0.0 | 0.0 | 0.00 | 0.00 | 0.00 | 90 | 1009.7 |
| 20260507014546 | 18 | 122 | 0.0 | 1.6 | 0.00 | 0.00 | 0.00 | 90 | 1009.9 |
| 20260507013046 | 18 | 122 | 0.0 | 0.0 | 0.00 | 0.00 | 0.00 | 89 | 1009.8 |
| 20260507011548 | 18 | 121 | 0.0 | 1.6 | 0.00 | 0.00 | 0.00 | 88 | 1010.1 |
| 20260507010046 | 18 | 121 | 0.0 | 3.2 | 0.00 | 0.00 | 0.00 | 88 | 1009.6 |
| 20260507004546 | 18 | 105 | 0.0 | 6.4 | 0.00 | 0.00 | 0.00 | 87 | 1009.6 |
| 20260507003045 | 19 | 300 | 0.0 | 4.8 | 0.00 | 0.00 | 0.00 | 86 | 1009.5 |
| 20260507001607 | 19 | 76 | 0.0 | 6.4 | 0.00 | 0.00 | 0.00 | 86 | 1009.6 |
| 20260507000044 | 20 | 134 | 0.0 | 3.2 | 0.00 | 0.00 | 0.00 | 85 | 1009.5 |
| 20260506234548 | 20 | 95 | 0.0 | 11.3 | 0.00 | 0.00 | 0.00 | 85 | 1009.4 |
| 20260506233042 | 20 | 98 | 0.0 | 8.0 | 0.00 | 0.00 | 0.00 | 84 | 1008.9 |
| 20260506231543 | 20 | 87 | 1.6 | 8.0 | 0.00 | 0.00 | 0.00 | 84 | 1009.0 |
| 20260506230052 | 20 | 28 | 0.0 | 9.7 | 0.00 | 0.00 | 0.00 | 83 | 1009.2 |
| 20260506224539 | 20 | 77 | 1.6 | 9.7 | 0.00 | 0.00 | 0.00 | 82 | 1009.1 |
| 20260506223039 | 21 | 95 | 1.6 | 12.9 | 0.00 | 0.00 | 0.00 | 82 | 1009.0 |
| 20260506221542 | 21 | 16 | 1.6 | 16.1 | 0.00 | 0.00 | 0.00 | 81 | 1009.3 |
| 20260506220038 | 21 | 233 | 0.0 | 14.5 | 0.00 | 0.00 | 0.00 | 79 | 1009.1 |
| 20260506214537 | 21 | 290 | 0.0 | 14.5 | 0.00 | 0.00 | 0.00 | 80 | 1008.9 |
| 20260506213036 | 21 | 314 | 3.2 | 11.3 | 0.00 | 0.00 | 0.00 | 79 | 1009.3 |
| 20260506211534 | 21 | 117 | 3.2 | 11.3 | 0.00 | 0.00 | 0.00 | 80 | 1009.1 |
| 20260506210048 | 21 | 100 | 1.6 | 17.7 | 0.00 | 0.00 | 0.00 | 80 | 1009.2 |
| 20260506204533 | 21 | 75 | 0.0 | 9.7 | 0.00 | 0.00 | 0.00 | 81 | 1009.0 |
| 20260506203035 | 21 | 117 | 1.6 | 9.7 | 0.00 | 0.00 | 0.00 | 81 | 1009.3 |
| 20260506201531 | 20 | 105 | 3.2 | 16.1 | 0.00 | 0.00 | 0.00 | 81 | 1009.3 |
| 20260506200033 | 20 | 82 | 1.6 | 9.7 | 0.00 | 0.00 | 0.00 | 84 | 1009.2 |
| 20260506194530 | 19 | 101 | 1.6 | 12.9 | 0.00 | 0.00 | 0.00 | 84 | 1009.2 |
| 20260506193035 | 18 | 111 | 1.6 | 19.3 | 0.00 | 0.00 | 0.00 | 85 | 1009.6 |
| 20260506191528 | 18 | 155 | 1.6 | 11.3 | 0.00 | 0.00 | 0.00 | 85 | 1009.8 |
| 20260506190030 | 18 | 92 | 1.6 | 8.0 | 0.00 | 0.00 | 0.00 | 86 | 1010.1 |
| 20260506184535 | 18 | 98 | 0.0 | 8.0 | 0.00 | 0.00 | 0.00 | 86 | 1010.3 |
| 20260506183023 | 18 | 98 | 3.2 | 11.3 | 0.00 | 0.00 | 0.00 | 86 | 1010.3 |
| 20260506181535 | 18 | 350 | 1.6 | 9.7 | 0.00 | 0.00 | 0.00 | 87 | 1010.4 |
| 20260506180020 | 18 | 69 | 3.2 | 12.9 | 0.00 | 0.00 | 0.00 | 86 | 1010.4 |
| 20260506174520 | 18 | 59 | 3.2 | 11.3 | 0.00 | 0.00 | 0.00 | 86 | 1010.4 |
| 20260506173019 | 18 | 136 | 3.2 | 12.9 | 0.00 | 0.00 | 0.00 | 87 | 1010.5 |
| 20260506171518 | 17 | 90 | 4.8 | 12.9 | 0.00 | 0.00 | 0.00 | 87 | 1010.7 |
| 20260506170025 | 17 | 68 | 1.6 | 9.7 | 0.00 | 0.00 | 0.00 | 89 | 1010.6 |
| 20260506164535 | 17 | 126 | 1.6 | 9.7 | 0.00 | 0.00 | 0.00 | 89 | 1010.9 |
| 20260506163016 | 17 | 124 | 3.2 | 11.3 | 0.00 | 0.00 | 0.00 | 91 | 1010.9 |
| 20260506161514 | 16 | 113 | 1.6 | 19.3 | 0.00 | 0.00 | 0.00 | 91 | 1011.4 |
| 20260506160016 | 16 | 63 | 1.6 | 9.7 | 0.00 | 0.00 | 0.00 | 93 | 1011.0 |
| 20260506154512 | 16 | 113 | 0.0 | 8.0 | 0.00 | 0.00 | 0.00 | 94 | 1010.9 |
| 20260506153012 | 16 | 74 | 1.6 | 14.5 | 0.00 | 0.00 | 0.00 | 94 | 1010.9 |